Regional Weather Roundup
Issued by NWS

Home | Current Version | Previous Version | Graphics & Text | Print | Product List | Glossary On
Versions: 1 2 3 4 5 6 7 8 9 10 11 12 13 14 15 16 17 18 19 20 21 22 23 24 25 26 27 28
000
ASUS45 KCYS 281210
RWRWY

WYOMING REGIONAL WEATHER ROUNDUP
NATIONAL WEATHER SERVICE CHEYENNE WY
600 AM MDT WED SEP 28 2016

NOTE:  "FAIR" INDICATES FEW OR NO CLOUDS BELOW 12,000 FEET
WITH NO SIGNIFICANT WEATHER AND/OR OBSTRUCTIONS TO VISIBILITY.

WYZ001-281300-
YELLOWSTONE NATIONAL PARK

CITY           SKY/WX    TMP DP  RH WIND       PRES   REMARKS
LK YELLOWSTONE   N/A     30  30 100 CALM      30.42R
6HR MIN TEMP:  30; 6HR MAX TEMP:  36;

W YELLOWSTONE  NOT AVBL

$$
WYZ002>013-054>058-071-098>099-281300-
NORTHERN WYOMING

CITY           SKY/WX    TMP DP  RH WIND       PRES   REMARKS
JACKSON        FAIR      37  36  93 CALM      30.35S
CODY           FAIR      52  39  62 MISG      30.28S
GREYBULL       FAIR      48  46  93 CALM      30.23R
6HR MIN TEMP:  47; 6HR MAX TEMP:  56;

WORLAND        FAIR      45  42  89 CALM      30.23S
6HR MIN TEMP:  45; 6HR MAX TEMP:  53;

SHERIDAN       FAIR      45  39  79 CALM      30.23R
6HR MIN TEMP:  44; 6HR MAX TEMP:  52;

BUFFALO        FAIR      59  35  40 W9        30.28R
6HR MIN TEMP:  55; 6HR MAX TEMP:  61;

GILLETTE       FAIR      41  39  93 S3        30.25R
6HR MIN TEMP:  40; 6HR MAX TEMP:  51;

HULETT         FAIR      48  41  76 S3        30.26R
NEWCASTLE      FAIR      46  37  71 N7        30.25R

$$
WYZ014>020-022>026-101>103-281300-
CENTRAL WYOMING

CITY           SKY/WX    TMP DP  RH WIND       PRES   REMARKS
BIG PINEY      FAIR      37  32  82 CALM      30.38R
6HR MIN TEMP:  34; 6HR MAX TEMP:  45;

PINEDALE       PTSUNNY   32  32 100 NW7       30.39R WCI  26
DUBOIS         FAIR      39  32  75 NW9       30.40S WCI  33
LANDER         FAIR      48  38  68 CALM      30.30R
6HR MIN TEMP:  46; 6HR MAX TEMP:  59;

RIVERTON       FAIR      45  41  86 NW8       30.31R
6HR MIN TEMP:  45; 6HR MAX TEMP:  55;

CASPER         FAIR      37  35  92 CALM      30.30R
6HR MIN TEMP:  37; 6HR MAX TEMP:  46;

DOUGLAS        FAIR      41  37  86 NW5       30.29R
6HR MIN TEMP:  39; 6HR MAX TEMP:  49;


$$
WYZ021-027>030-104>119-281300-
SOUTHERN WYOMING

CITY           SKY/WX    TMP DP  RH WIND       PRES   REMARKS
EVANSTON       FAIR      52  35  52 E3        30.33S
6HR MIN TEMP:  49; 6HR MAX TEMP:  56;

FORT BRIDGER   FAIR      47  37  66 NW5       30.37R
ROCK SPRINGS   FAIR      47  36  65 E7        30.34R
6HR MIN TEMP:  45; 6HR MAX TEMP:  55;

DIXON          FAIR      38  33  84 E3        30.36S
RAWLINS        FAIR      35  28  75 N3        30.37R
6HR MIN TEMP:  32; 6HR MAX TEMP:  43;

SARATOGA       FAIR      34  32  93 S3        30.38R
LARAMIE        FAIR      34  30  85 SW5       30.38R WCI  30
6HR MIN TEMP:  34; 6HR MAX TEMP:  43;

CHEYENNE       FAIR      46  31  55 NW9       30.32R
6HR MIN TEMP:  45; 6HR MAX TEMP:  51;

TORRINGTON     FAIR      44  40  85 W5        30.23R
6HR MIN TEMP:  42; 6HR MAX TEMP:  55;

PINE BLUFFS    FAIR      39  34  81 MISG      30.28R

$$




USA.gov is the U.S. government's official web portal to all federal, state and local government web resources and services.